Weather History for Iguazu Aerodrome, Argentina

Change the Weather History Date:

Wednesday, July 24, 2013

  Actual Average Record
Temperature  
Mean Temperature 42 °F -  
Max Temperature 55 °F 73 °F - ()
Min Temperature 30 °F 52 °F - ()
Degree Days  
Heating Degree Days 22    
Moisture  
Dew Point 36 °F    
Average Humidity 79    
Maximum Humidity 100    
Minimum Humidity 42    
Precipitation  
Precipitation 0.00 in - - ()
Sea Level Pressure  
Sea Level Pressure 30.37 in    
Wind  
Wind Speed 6 mph ()    
Max Wind Speed 9 mph    
Max Gust Speed -    
Visibility 7.0 miles    
Events      
T = Trace of Precipitation, MM = Missing Value Source: Averaged Metar Reports

Daily Weather History Graph

Daily Weather History Graph

Search for Another Location

Airport:

Trip Planner

Search our weather history database for the weather conditions in past years. The results will help you decide how hot, cold, wet, or windy it might be!

Date:

Astronomy

Jul. 24, 2013 Rise Set
Actual Time 7:20 AM ART 6:08 PM ART
Civil Twilight 6:55 AM ART 6:33 PM ART
Nautical Twilight 6:27 AM ART 7:01 PM ART
Astronomical Twilight 6:00 AM ART 7:28 PM ART
Moon 8:28 PM ART (7/24) 8:29 AM ART (7/24)
Length of Visible Light 11h 37m
Length of Day
10h 48m
Waning Gibbous, 95% of the Moon is Illuminated
Jul 24
Waning Gibbous
Jul 29
Last Quarter
Aug 6
New
Aug 14
First Quarter
Aug 20
Full

Hourly Weather History & Observations

Time (ART) Temp. Windchill Dew Point Humidity Pressure Visibility Wind Dir Wind Speed Gust Speed Precip Events Conditions
12:00 AM 39.2 °F 33.6 °F 35.6 °F 87% 30.39 in - SW 8.1 mph - N/A   Clear
1:00 AM 37.4 °F 30.8 °F 35.6 °F 93% 30.36 in - SW 9.2 mph - N/A   Clear
2:00 AM 35.6 °F 29.9 °F 33.8 °F 93% 30.39 in - South 6.9 mph - N/A   Clear
3:00 AM 35 °F - 34 °F 95% 30.39 in 3 mi SW 4.6 mph - -   Mist
3:00 AM 35.6 °F 31.7 °F 33.8 °F 93% 30.39 in 3.1 mi SW 4.6 mph - N/A   Mist
4:00 AM 33.8 °F 27.0 °F 33.8 °F 100% 30.39 in 5.0 mi SW 8.1 mph - N/A   Unknown
5:00 AM 33.8 °F 28.6 °F 33.8 °F 100% 30.36 in 5.0 mi South 5.8 mph - N/A   Unknown
6:00 AM 32.0 °F 27.5 °F 32.0 °F 100% 30.36 in 5.0 mi South 4.6 mph - N/A   Unknown
7:00 AM 32.0 °F 28.7 °F 32.0 °F 100% 30.39 in - South 3.5 mph - N/A   Clear
8:00 AM 32.0 °F - 32.0 °F 100% 30.39 in - Calm Calm - N/A   Clear
9:00 AM 36 °F - 35 °F 96% 30.42 in 12 mi SSW 4.6 mph - -  
9:00 AM 35.6 °F 31.7 °F 35.6 °F 100% 30.42 in - SSW 4.6 mph - N/A   Clear
10:00 AM 42.8 °F 38.0 °F 37.4 °F 81% 30.42 in 6.2 mi SSW 8.1 mph - N/A   Partly Cloudy
11:00 AM 46.4 °F - 37.4 °F 71% 30.42 in 6.2 mi Calm Calm - N/A   Partly Cloudy
12:00 PM 50.0 °F - 37.4 °F 62% 30.39 in - SW 4.6 mph - N/A   Clear
1:00 PM 53.6 °F - 35.6 °F 51% 30.36 in - South 5.8 mph - N/A   Clear
2:00 PM 53.6 °F - 37.4 °F 54% 30.33 in - SSW 9.2 mph - N/A   Clear
3:00 PM 55 °F - 38 °F 42% 30.32 in 12 mi WSW 5.8 mph - -  
3:00 PM 55.4 °F - 39.2 °F 54% 30.33 in - WSW 5.8 mph - N/A   Clear
4:00 PM 55.4 °F - 37.4 °F 51% 30.33 in - SSW 9.2 mph - N/A   Clear
5:00 PM 55.4 °F - 33.8 °F 44% 30.33 in - SW 9.2 mph - N/A   Clear
6:00 PM 51.8 °F - 35.6 °F 54% 30.33 in - SW 8.1 mph - N/A   Clear
7:00 PM 46.4 °F 41.9 °F 37.4 °F 71% 30.33 in - SW 9.2 mph - N/A   Clear
8:00 PM 44.6 °F 40.7 °F 37.4 °F 76% 30.36 in - SW 6.9 mph - N/A   Clear
9:00 PM 41 °F - 37 °F 81% 30.37 in 12 mi SW 6.9 mph - -  
9:00 PM 41.0 °F 36.4 °F 37.4 °F 87% 30.36 in - SW 6.9 mph - N/A   Clear
10:00 PM 41.0 °F 36.4 °F 39.2 °F 93% 30.36 in - SW 6.9 mph - N/A   Clear
11:00 PM 39.2 °F 35.0 °F 35.6 °F 87% 30.39 in - SW 5.8 mph - N/A   Clear